Regional Weather Roundup
Issued by NWS Newport/Morehead, NC

Current Version | Previous Version | Graphics & Text | Print | Product List | Glossary Off
Versions: 1 2 3 4 5 6 7 8 9 10 11 12 13 14 15 16 17 18 19 20 21 22 23 24 25 26 27 28 29 30 31 32 33 34 35 36 37 38 39 40 41 42 43 44 45 46 47 48 49 50
000 ASUS42 KMHX 270825 RWRMHX WEATHER ROUNDUP FOR EASTERN NORTH CAROLINA NATIONAL WEATHER SERVICE NEWPORT/MOREHEAD CITY NC 400 AM EDT WED JUL 27 2016 NOTE: "FAIR" INDICATES FEW OR NO CLOUDS BELOW 12,000 FEET WITH NO SIGNIFICANT WEATHER AND/OR OBSTRUCTIONS TO VISIBILITY NCZ015>017-031-032-045>047-102-103-270900- NORTH COAST CITY SKY/WX TMP DP RH WIND PRES REMARKS EDENTON CLOUDY 82 77 84 W7 29.93F ELIZABETH CITY CLOUDY 76 73 91 CALM 29.93S KITTY HAWK MOSUNNY 82 76 84 W8 29.92F MANTEO N/A 81 78 90 W12 29.93F $$ NCZ045>047-081-094-103-104-270900- CENTRAL COAST CITY SKY/WX TMP DP RH WIND PRES REMARKS FRISCO CLOUDY 82 77 84 W7 29.96F $$ NCZ095-097-098-100-101-270900- SOUTHERN COAST CITY SKY/WX TMP DP RH WIND PRES REMARKS BEAUFORT PTCLDY 82 77 84 SW9 29.97F CEDAR ISLAND NOT AVBL JACKSONVILLE CLEAR 78 74 87 SW8 29.97S PINEY ISLAND NOT AVBL WILMINGTON PTCLDY 80 74 81 SW9 29.98F $$ NCZ011>013-027>030-043-044-078>080-089-090>093-098-270900- COASTAL PLAIN CITY SKY/WX TMP DP RH WIND PRES REMARKS AHOSKIE CLOUDY 73 72 97 CALM 29.93S CLINTON PTCLDY 79 77 93 CALM 29.96F ELIZABETHTOWN CLEAR 79 75 89 SW6 29.97S GOLDSBORO CLOUDY 81 80 97 N6 29.95R GREENVILLE MOCLDY 81 77 89 S5 29.97F HAVELOCK CLEAR 78 73 84 SW6 29.98F KENANSVILLE NOT AVBL KINSTON CLOUDY 79 75 88 N3 29.97R NEW BERN CLOUDY 78 74 87 SW5 29.98S RICHLANDS MOCLDY 77 75 93 S7 29.97F ROCKY MOUNT CLOUDY 78 76 93 CALM 29.95F WASHINGTON PTCLDY 79 75 89 S5 29.95F WHITEVILLE CLEAR 79 74 82 SW7 29.98S $$ AMZ130-135-150-152-154-156-158-170-250-252-270-ANZ085-086-088-633-658-670-270900- MARINE OBSERVATIONS STATION/POSITION TIME TEMP WIND PRES WAVE SWELL AIR SEA DIR/SP/G HT/PER HT/PER (UTC) (F) (DEG/KT/KT) (MB) (FT/S) (FT/S) CHESAPEAKE LIGHT NOT AVBL 64 E VA BEACH 0750 80 80 210/ 8/ 10 1012.9 3/ 6 3/ 6 DUCK 0800 83 64 260/ 11/ 13 1012.6 2 E DUCK 0711 66 N/A 1/ 6 OREGON INLET 0800 82 85 240/ 14/ 15 1013.4 13E OREGON INLT 0800 82 N/A 3/ 6 HATTERAS CG 0800 81 83 230/ 7/ 9 1014.1 DIAMOND BUOY 0750 84 85 250/ 16/ 19 1014.6 4/ 5 CAPE LOOKOUT 0800 83 250/ 10/ 13 1014.9 BEAUFORT LAB 0800 82 83 240/ 4/ 11 1014.3 30 SE NEW RVR IN 0808 84 84 250/ 16/ 21 1015.1 30 SE NEW RVR IN 0725 84 N/A 4/ 5 27 SE WRIGHTSVLE 0708 84 84 240/ 16/ 19 1015.7 5 SE WRIGHTSVLE 0708 81 80 250/ 8/ 10 1016.2 225 S CAPE HAT 0750 84 84 250/ 14/ 16 1017.0 3/ 4 2/ 8 41 SE CHARLESTON 0750 85 86 240/ 17/ 19 1015.9 4/ 5 $$

USA.gov is the U.S. government's official web portal to all federal, state and local government web resources and services.